Regional Weather Roundup
Issued by NWS Green Bay, WI

Home | Current Version | Previous Version | Text Only | Print | Product List | Glossary On
Versions: 1 2 3 4 5 6 7 8 9 10 11 12 13 14 15 16 17 18 19 20 21 22 23 24 25 26 27 28 29 30 31 32 33 34 35 36 37 38 39 40 41 42 43 44 45 46 47 48 49 50
000
ASUS43 KGRB 061811
RWRGRB

NORTH-CENTRAL AND NORTHEAST WISCONSIN REGIONAL WEATHER ROUNDUP
NATIONAL WEATHER SERVICE GREEN BAY WI
1200 PM CST SAT FEB 06 2016

WIZ005-009-010>012-018-019-061900-
NORTH CENTRAL WISCONSIN

CITY           SKY/WX    TMP DP  RH WIND       PRES   REMARKS
IRONWOOD       CLOUDY    28  19  69 S8        29.96F
MANITOWISH WTR CLOUDY    25  20  82 S8        30.00F
ARBOR VITAE    CLOUDY    27  20  77 SW7       30.01F
EAGLE RIVER    CLOUDY    25  18  77 SW10      30.01F
LAND O LAKES   CLOUDY    27  19  74 SW7       30.01F
RHINELANDER    CLOUDY    25  19  78 SW10      30.03F
PHILLIPS       CLOUDY    26  20  80 SW9       30.02F
ANTIGO         CLOUDY    25  21  86 W13       30.05F
TOMAHAWK       CLOUDY    27  20  75 SW3       30.05F
MERRILL        CLOUDY    27  22  79 W9        30.07F
$$

WIZ013-073-061900-
NORTHEAST WISCONSIN

CITY           SKY/WX    TMP DP  RH WIND       PRES   REMARKS
IRON MOUNTAIN  CLOUDY    26  18  71 W9        30.03F
MARINETTE      CLOUDY    28  19  69 W7        30.10S
OCONTO         CLOUDY    28  23  81 W13G18    30.11F
$$

WIZ017-030-035>037-045-061900-
CENTRAL WISCONSIN

CITY           SKY/WX    TMP DP  RH WIND       PRES   REMARKS
MEDFORD        CLOUDY    26  22  82 SW9       30.05F
WAUSAU         CLOUDY    28  22  78 SW12      30.06F
MOSINEE        CLOUDY    27  25  93 W10       30.09F
MARSHFIELD     CLOUDY    29  21  72 SW12      30.07F
WISC RAPIDS    CLOUDY    29  22  75 SW12      30.12F
STEVENS POINT  CLOUDY    27  22  82 SW9G16    30.10F
WAUPACA        CLOUDY    31  25  77 SW9       30.13F
SHAWANO        CLOUDY    30  23  75 W6        30.11F
CLINTONVILLE   CLOUDY    30  23  74 SW9       30.12S
WAUTOMA        CLOUDY    30  25  80 SW9       30.13F
$$

WIZ038-039-048-051-061900-
FOX VALLEY

CITY           SKY/WX    TMP DP  RH WIND       PRES   REMARKS
NWS GREEN BAY  CLOUDY    29  23  78 W14       30.13F
APPLETON       CLOUDY    28  23  80 SW9G16    30.11F
OSHKOSH        CLOUDY    30  23  75 W10G16    30.13F
FOND DU LAC    CLOUDY    30  24  78 SW12      30.14F
$$

WIZ022-050-052-061900-
EAST CENTRAL WISCONSIN

CITY           SKY/WX    TMP DP  RH WIND       PRES   REMARKS
EPHRAIM        CLOUDY    27  22  81 W8        30.09F
STURGEON BAY   CLOUDY    27  19  74 W10       30.12F
MANITOWOC      CLOUDY    31  24  75 W14G20    30.13F
SHEBOYGAN      CLOUDY    30  24  78 W14       30.14F
$$

LMZ563-521-522-541>543-061900-
LAKESHORE

STATION/POSITION TIME  TEMP    WIND        PRES    VSBY  WAVE
                       AIR SEA DIR/SP/G                  HT/PER
                 (UTC) (F)     (DEG/KT/KT) (MB)    (MI)  (FT/S)
SHEBOYGAN LKSHOR 1800   30     250/ 11/ 13 1021.6F
KEWAUNEE LKSHORE 1700   28     280/ 10/ 13 1019.7F
ALGOMA MARINA    1711          250/  9/ 11   N/A
CHAMBERS ISLAND  1700   27     220/  6/ 11 1020.0F
MENOMINEE LKSHOR 1700   27     250/  8     1018.7F
$$



USA.gov is the U.S. government's official web portal to all federal, state and local government web resources and services.